SYRACUSE 4B

Last updated on Tue Sep 16 2025 00:02:51 GMT+0000 (Coordinated Universal Time)

1 57214U 23093B 25257.94097433 -.00000068 00000+0 00000+0 0 9999 2 57214 0.0144 177.8150 0000328 62.6609 85.8490 1.00275833 4200
UTC large
Height (km)
Speed (km/s)
/
Latitude / Longitude
Inclination (degrees)
Orbital Period (minutes)
Azimuth
Elevation
Range (km)
Doppler Factor

Next 0 passes for location: London (51.5072 / 0.1276)

Sorry there are no passes over London.